Olney-Noble, IL

6:27 PM CDT on June 24, 2017 (GMT -0500)
Olney-Noble

Weather History for KOLY - February, 2013

Change the Weather History Date:

Tuesday, February 19, 2013

  Actual Average (KEVV) Record (KEVV)
Temperature  
Mean Temperature 30 °F -  
Max Temperature 37 °F 45 °F 73 °F (1994)
Min Temperature 24 °F 28 °F -6 °F (2015)
Degree Days  
Heating Degree Days 34    
Moisture  
Dew Point 22 °F    
Average Humidity 71    
Maximum Humidity 93    
Minimum Humidity 64    
Precipitation  
Precipitation 0.00 in - - ()
Sea Level Pressure  
Sea Level Pressure 30.06 in    
Wind  
Wind Speed 18 mph (WNW)    
Max Wind Speed 25 mph    
Max Gust Speed 36 mph    
Visibility 10 miles    
Events      
Averages and records for this station are not official NWS values.
T = Trace of Precipitation, MM = Missing Value Source: NWS Daily Summary

Daily Weather History Graph

Daily Weather History Graph

Search for Another Location

Airport or City:

Trip Planner

Search our weather history database for the weather conditions in past years. The results will help you decide how hot, cold, wet, or windy it might be!

Date:

Astronomy

Feb. 19, 2013 Rise Set
Actual Time 6:38 AM CST 5:35 PM CST
Civil Twilight 6:11 AM CST 6:02 PM CST
Nautical Twilight 5:40 AM CST 6:33 PM CST
Astronomical Twilight 5:09 AM CST 7:04 PM CST
Moon 12:08 PM CST (2/19) 2:08 AM CST (2/19)
Length of Visible Light 11h 50m
Length of Day
10h 56m
Waxing Gibbous, 67% of the Moon is Illuminated
Feb 19
Waxing Gibbous
Feb 25
Full
Mar 4
Last Quarter
Mar 11
New
Mar 19
First Quarter

Hourly Weather History & Observations

Time (CST) Temp. Windchill Dew Point Humidity Pressure Visibility Wind Dir Wind Speed Gust Speed Precip Events Conditions
12:15 AM 37.4 °F 27.5 °F 35.6 °F 93% 29.81 in 10.0 mi West 18.4 mph 29.9 mph N/A   Overcast
12:35 AM 37.4 °F 27.8 °F 33.8 °F 87% 29.82 in 10.0 mi West 17.3 mph 26.5 mph N/A   Overcast
12:55 AM 35.6 °F 24.8 °F 32.0 °F 87% 29.83 in 10.0 mi West 19.6 mph 33.4 mph N/A   Overcast
1:15 AM 35.6 °F 23.4 °F 30.2 °F 81% 29.84 in 10.0 mi West 25.3 mph 33.4 mph N/A   Overcast
1:35 AM 35.6 °F 23.7 °F 28.4 °F 75% 29.85 in 10.0 mi West 24.2 mph 28.8 mph N/A   Overcast
1:55 AM 33.8 °F 22.5 °F 28.4 °F 81% 29.86 in 10.0 mi West 19.6 mph 31.1 mph N/A   Overcast
2:15 AM 33.8 °F 21.9 °F 28.4 °F 81% 29.87 in 10.0 mi West 21.9 mph 27.6 mph N/A   Overcast
2:35 AM 33.8 °F 22.2 °F 26.6 °F 75% 29.87 in 10.0 mi West 20.7 mph 28.8 mph N/A   Overcast
2:55 AM 33.8 °F 22.8 °F 26.6 °F 75% 29.88 in 10.0 mi West 18.4 mph 26.5 mph N/A   Overcast
3:15 AM 33.8 °F 24.8 °F 26.6 °F 75% 29.88 in 10.0 mi West 12.7 mph 27.6 mph N/A   Overcast
3:35 AM 33.8 °F 23.2 °F 26.6 °F 75% 29.89 in 10.0 mi West 17.3 mph 29.9 mph N/A   Overcast
3:55 AM 32.0 °F 21.6 °F 24.8 °F 75% 29.89 in 10.0 mi West 15.0 mph 25.3 mph N/A   Mostly Cloudy
4:15 AM 32.0 °F 20.8 °F 24.8 °F 75% 29.90 in 10.0 mi West 17.3 mph 27.6 mph N/A   Scattered Clouds
4:35 AM 32.0 °F 23.0 °F 24.8 °F 75% 29.90 in 10.0 mi West 11.5 mph - N/A   Mostly Cloudy
4:55 AM 32.0 °F 21.2 °F 24.8 °F 75% 29.91 in 10.0 mi West 16.1 mph 20.7 mph N/A   Overcast
5:15 AM 30.2 °F 18.5 °F 23.0 °F 75% 29.93 in 10.0 mi West 17.3 mph 25.3 mph N/A   Overcast
5:35 AM 30.2 °F 20.2 °F 23.0 °F 75% 29.94 in 10.0 mi West 12.7 mph - N/A   Mostly Cloudy
5:55 AM 30.2 °F 18.9 °F 23.0 °F 75% 29.94 in 10.0 mi West 16.1 mph 24.2 mph N/A   Overcast
6:15 AM 30.2 °F 19.3 °F 21.2 °F 69% 29.95 in 10.0 mi West 15.0 mph 21.9 mph N/A   Overcast
6:35 AM 30.2 °F 19.3 °F 21.2 °F 69% 29.96 in 10.0 mi West 15.0 mph 21.9 mph N/A   Mostly Cloudy
6:55 AM 30.2 °F 19.3 °F 23.0 °F 75% 29.96 in 10.0 mi West 15.0 mph - N/A   Overcast
7:15 AM 28.4 °F 15.8 °F 21.2 °F 74% 29.97 in 10.0 mi West 18.4 mph 27.6 mph N/A   Mostly Cloudy
7:35 AM 28.4 °F 15.1 °F 21.2 °F 74% 29.98 in 10.0 mi West 20.7 mph 25.3 mph N/A   Scattered Clouds
7:55 AM 28.4 °F 14.1 °F 19.4 °F 69% 30.00 in 10.0 mi West 24.2 mph 35.7 mph N/A   Scattered Clouds
8:15 AM 28.4 °F 17.5 °F 21.2 °F 74% 30.01 in 10.0 mi West 13.8 mph 28.8 mph N/A   Mostly Cloudy
8:35 AM 30.2 °F 19.8 °F 21.2 °F 69% 30.02 in 10.0 mi West 13.8 mph - N/A   Overcast
8:55 AM 30.2 °F 17.8 °F 21.2 °F 69% 30.01 in 10.0 mi West 19.6 mph 28.8 mph N/A   Overcast
9:15 AM 30.2 °F 17.1 °F 21.2 °F 69% 30.02 in 10.0 mi West 21.9 mph 27.6 mph N/A   Overcast
9:35 AM 30.2 °F 16.2 °F 19.4 °F 64% 30.03 in 10.0 mi West 25.3 mph 31.1 mph N/A   Mostly Cloudy
9:55 AM 30.2 °F 16.8 °F 19.4 °F 64% 30.04 in 10.0 mi West 23.0 mph 32.2 mph N/A   Scattered Clouds
10:35 AM 30.2 °F 19.3 °F 21.2 °F 69% 30.05 in 10.0 mi West 15.0 mph - N/A   Overcast
10:55 AM 30.2 °F 17.8 °F 21.2 °F 69% 30.06 in 10.0 mi West 19.6 mph 27.6 mph N/A   Overcast
11:15 AM 30.2 °F 17.8 °F 21.2 °F 69% 30.07 in 10.0 mi West 19.6 mph 26.5 mph N/A   Overcast
11:35 AM 30.2 °F 16.8 °F 19.4 °F 64% 30.07 in 10.0 mi West 23.0 mph 31.1 mph N/A   Overcast
11:55 AM 30.2 °F 17.1 °F 21.2 °F 69% 30.08 in 10.0 mi West 21.9 mph 25.3 mph N/A   Overcast
12:15 PM 30.2 °F 18.1 °F 21.2 °F 69% 30.08 in 10.0 mi West 18.4 mph 25.3 mph N/A   Overcast
12:35 PM 30.2 °F 17.8 °F 21.2 °F 69% 30.09 in 10.0 mi West 19.6 mph 26.5 mph N/A   Overcast
12:55 PM 30.2 °F 18.1 °F 19.4 °F 64% 30.09 in 10.0 mi West 18.4 mph 28.8 mph N/A   Mostly Cloudy
1:15 PM 30.2 °F 17.4 °F 19.4 °F 64% 30.09 in 10.0 mi West 20.7 mph 27.6 mph N/A   Mostly Cloudy
1:35 PM 30.2 °F 17.1 °F 19.4 °F 64% 30.09 in 10.0 mi West 21.9 mph 27.6 mph N/A   Overcast
1:55 PM 30.2 °F 17.8 °F 19.4 °F 64% 30.10 in 10.0 mi West 19.6 mph 26.5 mph N/A   Overcast
2:15 PM 32.0 °F 20.5 °F 21.2 °F 64% 30.11 in 10.0 mi West 18.4 mph 23.0 mph N/A   Overcast
2:35 PM 32.0 °F 20.1 °F 21.2 °F 64% 30.11 in 10.0 mi West 19.6 mph 27.6 mph N/A   Overcast
2:55 PM 30.2 °F 18.5 °F 21.2 °F 69% 30.12 in 10.0 mi West 17.3 mph 26.5 mph N/A   Overcast
3:15 PM 30.2 °F 18.5 °F 21.2 °F 69% 30.13 in 10.0 mi WNW 17.3 mph 24.2 mph N/A   Overcast
3:35 PM 30.2 °F 18.9 °F 21.2 °F 69% 30.13 in 10.0 mi NW 16.1 mph 21.9 mph N/A   Mostly Cloudy
3:55 PM 30.2 °F 18.9 °F 21.2 °F 69% 30.14 in 10.0 mi WNW 16.1 mph 25.3 mph N/A   Scattered Clouds
4:15 PM 30.2 °F 18.1 °F 21.2 °F 69% 30.15 in 10.0 mi WNW 18.4 mph 23.0 mph N/A   Mostly Cloudy
4:35 PM 30.2 °F 18.1 °F 21.2 °F 69% 30.16 in 10.0 mi WNW 18.4 mph 24.2 mph N/A   Mostly Cloudy
4:55 PM 30.2 °F 18.1 °F 19.4 °F 64% 30.17 in 10.0 mi WNW 18.4 mph 24.2 mph N/A   Scattered Clouds
5:15 PM 28.4 °F 16.6 °F 19.4 °F 69% 30.18 in 10.0 mi WNW 16.1 mph 24.2 mph N/A   Clear
6:15 PM 26.6 °F 15.2 °F 19.4 °F 74% 30.20 in 10.0 mi NW 13.8 mph - N/A   Clear
6:35 PM 26.6 °F 15.7 °F 19.4 °F 74% 30.21 in 10.0 mi WNW 12.7 mph - N/A   Clear
6:55 PM 26.6 °F 15.2 °F 17.6 °F 69% 30.21 in 10.0 mi NW 13.8 mph 18.4 mph N/A   Clear
7:15 PM 26.6 °F 15.2 °F 17.6 °F 69% 30.21 in 10.0 mi WNW 13.8 mph 19.6 mph N/A   Clear
7:35 PM 26.6 °F 16.2 °F 17.6 °F 69% 30.21 in 10.0 mi WNW 11.5 mph 17.3 mph N/A   Clear
7:55 PM 26.6 °F 17.5 °F 19.4 °F 74% 30.21 in 10.0 mi WNW 9.2 mph - N/A   Clear
8:15 PM 26.6 °F 17.5 °F 17.6 °F 69% 30.21 in 10.0 mi WNW 9.2 mph - N/A   Clear
8:35 PM 26.6 °F 18.2 °F 17.6 °F 69% 30.22 in 10.0 mi WNW 8.1 mph - N/A   Clear
8:55 PM 26.6 °F 18.2 °F 17.6 °F 69% 30.23 in 10.0 mi WNW 8.1 mph - N/A   Clear
9:15 PM 26.6 °F 16.8 °F 17.6 °F 69% 30.23 in 10.0 mi WNW 10.4 mph - N/A   Clear
9:35 PM 24.8 °F 15.3 °F 17.6 °F 74% 30.24 in 10.0 mi WNW 9.2 mph - N/A   Clear
9:55 PM 24.8 °F 14.6 °F 17.6 °F 74% 30.24 in 10.0 mi WNW 10.4 mph - N/A   Clear
10:15 PM - - - N/A% 30.24 in 10.0 mi WNW 11.5 mph - N/A   Clear
10:35 PM 24.8 °F 15.3 °F 17.6 °F 74% 30.25 in 10.0 mi WNW 9.2 mph - N/A   Clear
10:55 PM 24.8 °F 13.4 °F 15.8 °F 69% 30.25 in 10.0 mi WNW 12.7 mph - N/A   Clear
11:15 PM 24.8 °F 14.0 °F 15.8 °F 69% 30.25 in 10.0 mi West 11.5 mph - N/A   Clear
11:35 PM 24.8 °F 14.0 °F 15.8 °F 69% 30.25 in 10.0 mi West 11.5 mph - N/A   Clear
11:55 PM 24.8 °F 14.0 °F 15.8 °F 69% 30.25 in 10.0 mi WNW 11.5 mph 17.3 mph N/A   Clear